This is the latest recevied weather packets stored in our database for station/object KP4OZ. If no packets are shown the sender has not sent any weather packets the latest 10 day(s).
| Time | Temp. | Humidity | Pressure | Rain* | Wind** | Luminosity | Snow |
|---|---|---|---|---|---|---|---|
| 1777588410 | 26.67° C | 89% | 1013 hPa | 1.27 mm | - | - | - |
| 1777588106 | 26.67° C | 89% | 1013.1 hPa | 1.27 mm | - | - | - |
| 1777587802 | 26.67° C | 88% | 1012.9 hPa | 1.78 mm | - | - | - |
| 1777587501 | 26.67° C | 88% | 1012.5 hPa | 1.27 mm | - | - | - |
| 1777587198 | 26.67° C | 87% | 1012.8 hPa | 1.27 mm | - | - | - |
| 1777586893 | 26.67° C | 87% | 1012.7 hPa | 1.78 mm | - | - | - |
| 1777586589 | 26.67° C | 87% | 1012.6 hPa | 1.78 mm | - | - | - |
| 1777586284 | 26.67° C | 86% | 1012.6 hPa | 0 mm | - | - | - |
| 1777585982 | 26.67° C | 86% | 1012.3 hPa | 1.78 mm | - | - | - |
| 1777585677 | 27.22° C | 85% | 1012.4 hPa | 1.78 mm | - | - | - |
| 1777585373 | 27.22° C | 85% | 1012.2 hPa | 1.27 mm | - | - | - |
| 1777585067 | 27.22° C | 84% | 1012 hPa | 1.27 mm | - | - | - |
| 1777584763 | 27.22° C | 84% | 1012.3 hPa | 0 mm | - | - | - |
| 1777584462 | 27.22° C | 83% | 1012.1 hPa | 0 mm | - | - | - |
| 1777584158 | 27.22° C | 82% | 1012.2 hPa | 1.78 mm | - | - | - |
| 1777583857 | 27.22° C | 81% | 1012 hPa | 1.78 mm | - | - | - |
| 1777583553 | 27.22° C | 79% | 1012 hPa | 0 mm | - | - | - |
| 1777583252 | 27.22° C | 77% | 1012.1 hPa | 0 mm | - | - | - |
| 1777582947 | 27.22° C | 76% | 1012 hPa | 0 mm | - | - | - |
| 1777582645 | 27.78° C | 77% | 1012 hPa | 0 mm | - | - | - |
| 1777582345 | 27.78° C | 77% | 1011.6 hPa | 0 mm | - | - | - |
| 1777582043 | 27.78° C | 77% | 1011.9 hPa | 0 mm | - | - | - |
| 1777581738 | 27.78° C | 77% | 1011.6 hPa | 0 mm | - | - | - |
| 1777581437 | 28.33° C | 77% | 1011.7 hPa | 0 mm | - | - | - |
| 1777581132 | 28.33° C | 76% | 1011.6 hPa | 0 mm | - | - | - |
* Rain latest hour (hover to see other rain measurements)
** Current wind speed in m/s (hover to see current wind gust speed)